星链-36314(STARLINK-36314)

导读

STARLINK-36314(NORAD编号68741)是SpaceX星链(Starlink)互联网卫星星座中的一颗低轨通信卫星。星链项目旨在搭建覆盖全球的天基互联网系统,为全球用户提供低成本、高速率的宽带服务。作为星链扩容批次的一员,该卫星运行在近地轨道,承担着增强全球网络覆盖,尤其是偏远地区网络接入能力的任务。它依托星链星座的组网设计,与其他卫星协同工作,为地面用户提供稳定的互联网通信服务,是SpaceX推进全球卫星互联网布局的组成部分。

基本信息
目录编号:
68741
目录名称:
STARLINK-36314
国际标识:
2026-082P
轨道中心:
EARTH
卫星名称:
星链-36314
卫星全名:
星链-36314(STARLINK-36314)
卫星状态:
在轨 (已飞行143 天)
发射日期:
2026-04-15 UTC
国别 :
美国 (US)
星等 :
--
轨道信息
数据来源 国际轨道数据
星历时间: 2026-09-05T12:09:15+0800
7小时前
查看轨道信息
半长轴: 6843.702km
偏心率: 0.0002937
轨道倾角: 97.285°
近地点辐角 83.145°
升交点赤经 110.496°
平近点角 277.012°
近地点: 463.555km
远地点: 467.575km
周期: 93.907分钟
每日圈数: 15.334379
详细信息
固有亮度:
5
最大亮度:
2.5
卫星平台:
Starlink V1.0
覆盖范围:
全球
运营商:
太空探索技术公司
运营商所在国:
美国
制造商(研发单位):
太空探索技术公司
制造商所在国:
美国
使用方式:
暂无
卫星简介
Starlink 计划是 SpaceX 推出的全球卫星互联网项目,通过发射低轨道卫星,为全球尤其是偏远地区提供高速、低延迟的互联网服务。自 2019 年起,Starlink 已部署数千颗卫星,旨在缩小全球数字鸿沟,推动互联网普及。该项目还为军事、航空等行业提供通信支持,带来广泛经济效益。
2D轨道图
3D轨道图
轨道高度分析图
轨道倾角分析图
轨道综合分析图
查看轨道综合分析图
交会数据列表
事件ID 空间交会对象 最接近时刻(TCA) 交会距离 交会风险概率(CRP) 交会风险指数(CRI) 操作
CDM_260907-044705-357006-874121
2026-09-07T
04:47:28+0000
2.558 km
极远距离
1.678493E-6 低风险 0.39
CDM_260906-195105-389806-874121
2026-09-06T
19:51:27+0000
2.507 km
极远距离
1.605707E-6 低风险 0.39
CDM_260907-154705-248906-874121
2026-09-07T
15:47:32+0000
2.869 km
极远距离
1.403568E-6 低风险 0.38
CDM_260906-173005-389806-874121
2026-09-06T
17:30:35+0000
2.765 km
极远距离
1.373337E-6 低风险 0.38
CDM_260906-061106-418006-874121
2026-09-06T
06:11:15+0000
2.896 km
极远距离
1.354511E-6 低风险 0.38
CDM_260906-105404-832806-874121
2026-09-06T
10:54:04+0000
2.948 km
极远距离
1.307149E-6 低风险 0.37
CDM_260905-125405-083606-874121
2026-09-05T
12:54:08+0000
2.977 km
极远距离
8.729678E-7 极低风险 0.34